Location: Beau Repaire
(50.6144°N, 4.0551°E)
Time: 15:23:12
(UTC+00:00)

Cosmos 2322 Rocket - Pass Details

Date: 15 May 2026
Orbit: 831 x 850 km, 71.0° (Epoch: 10 June)

Event Time Altitude Azimuth Distance (km) Brightness Sun altitude
Rises 22:17:00 0° 323° (NW) 3,408 6.8 -18.0°
Reaches altitude 10° 22:19:47 10° 312° (NW) 2,472 5.6 -18.1°
Maximum altitude 22:24:25 27° 256° (WSW) 1,585 3.7 -18.4°
Enters shadow 22:27:31 17° 213° (SSW) 2,026 3.8 -18.5°
